User: anonymous   Login
Location: St. Malo Provincial Park
(49.3214°N, 96.9305°W)
Time: 09:09:20
(UTC-05:00)
Language:

Iridium 6 - Orbit

View from above orbital plane
View from above orbital plane
View from above satellite
View from above satellite

Ground track
Ground track

The orbit data is extracted from the following two-line orbital elements,

1 24794U 97020C   15243.05092726 -.00000024  00000-0 -15768-4 0  9999
2 24794 086.3944 233.1102 0002215 080.5913 279.5533 14.34216778959156
Epoch (UTC): 31 August 2015 01:13:20
Eccentricity: 0.0002215
inclination: 86.3944°
perigee height: 776 km
apogee height: 779 km
right ascension of ascending node: 233.1102°
argument of perigee: 80.5913°
revolutions per day: 14.34216778
mean anomaly at epoch: 279.5533°
orbit number at epoch: 95915

The dashed part of the orbit path shows where the satellite is in the earth's shadow,  

DLR